Hibbing, MN

7:56 AM CDT on October 21, 2017 (GMT -0500)
Chisholm-hibbing

Weather History for KHIB - March, 2014

Change the Weather History Date:

Thursday, March 20, 2014

  Actual Average Record
Temperature  
Mean Temperature 26 °F -  
Max Temperature 41 °F 35 °F 63 °F (2012)
Min Temperature 14 °F 17 °F -28 °F (1965)
Degree Days  
Heating Degree Days 38    
Moisture  
Dew Point 18 °F    
Average Humidity 63    
Maximum Humidity 84    
Minimum Humidity 40    
Precipitation  
Precipitation 0.00 in - - ()
Sea Level Pressure  
Sea Level Pressure 29.96 in    
Wind  
Wind Speed 4 mph (NW)    
Max Wind Speed 8 mph    
Max Gust Speed -    
Visibility 10 miles    
Events      
Averages and records for this station are not official NWS values.
T = Trace of Precipitation, MM = Missing Value Source: NWS Daily Summary

Daily Weather History Graph

Daily Weather History Graph

Search for Another Location

Airport or City:

Trip Planner

Search our weather history database for the weather conditions in past years. The results will help you decide how hot, cold, wet, or windy it might be!

Date:

Astronomy

Mar. 20, 2014 Rise Set
Actual Time 7:14 AM CDT 7:24 PM CDT
Civil Twilight 6:43 AM CDT 7:54 PM CDT
Nautical Twilight 6:07 AM CDT 8:30 PM CDT
Astronomical Twilight 5:30 AM CDT 9:08 PM CDT
Moon No Moon Rise 9:04 AM CDT (3/20)
Length of Visible Light 13h 11m
Length of Day
12h 09m
Waning Gibbous, 84% of the Moon is Illuminated
Mar 20
Waning Gibbous
Mar 23
Last Quarter
Mar 30
New
Apr 7
First Quarter
Apr 15
Full

Hourly Weather History & Observations

Time (CDT) Temp. Windchill Dew Point Humidity Pressure Visibility Wind Dir Wind Speed Gust Speed Precip Events Conditions
1:38 AM 27.0 °F 18.7 °F 17.1 °F 66% 29.91 in 10.0 mi NNW 8.1 mph - N/A   Overcast
1:53 AM 27.0 °F 23.0 °F 17.1 °F 66% 29.97 in 10.0 mi WNW 3.5 mph - N/A   Overcast
2:53 AM 27.0 °F - 17.1 °F 66% 29.97 in 10.0 mi Calm Calm - N/A   Overcast
3:53 AM 27.0 °F - 17.1 °F 66% 29.97 in 10.0 mi Calm Calm - N/A   Overcast
4:53 AM 26.1 °F 21.9 °F 17.1 °F 69% 29.98 in 10.0 mi West 3.5 mph - N/A   Overcast
5:53 AM 24.1 °F 19.7 °F 17.1 °F 75% 29.99 in 10.0 mi North 3.5 mph - N/A   Overcast
6:53 AM 17.1 °F - 12.0 °F 81% 30.00 in 10.0 mi Calm Calm - N/A   Clear
7:53 AM 14.0 °F - 10.0 °F 84% 30.01 in 10.0 mi Calm Calm - N/A   Clear
8:53 AM 21.0 °F - 16.0 °F 81% 30.01 in 10.0 mi Calm Calm - N/A   Clear
9:53 AM 28.0 °F - 18.0 °F 66% 30.01 in 10.0 mi Calm Calm - N/A   Clear
10:53 AM 32.0 °F 28.7 °F 19.0 °F 59% 30.01 in 10.0 mi North 3.5 mph - N/A   Mostly Cloudy
11:15 AM 30.9 °F 25.2 °F 19.0 °F 61% 29.95 in 10.0 mi NW 5.8 mph - N/A   Scattered Clouds
11:53 AM 33.1 °F 28.7 °F 19.9 °F 59% 30.00 in 10.0 mi Variable 4.6 mph - N/A   Partly Cloudy
12:53 PM 35.1 °F 32.2 °F 19.9 °F 54% 29.99 in 10.0 mi NNW 3.5 mph - N/A   Clear
2:53 PM 37.9 °F 32.7 °F 18.0 °F 45% 29.95 in 10.0 mi WNW 6.9 mph - N/A   Clear
3:53 PM 39.0 °F 34.0 °F 17.1 °F 41% 29.93 in 10.0 mi NNW 6.9 mph - N/A   Clear
4:53 PM 39.9 °F 35.1 °F 17.1 °F 40% 29.92 in 10.0 mi NNW 6.9 mph - N/A   Clear
5:53 PM 39.9 °F 36.7 °F 17.1 °F 40% 29.92 in 10.0 mi North 4.6 mph - N/A   Clear
6:53 PM 35.1 °F - 19.0 °F 52% 29.93 in 10.0 mi Calm Calm - N/A   Clear
7:53 PM 30.9 °F 26.2 °F 19.0 °F 61% 29.94 in 10.0 mi SSW 4.6 mph - N/A   Clear
8:53 PM 30.9 °F - 21.0 °F 67% 29.94 in 10.0 mi Calm Calm - N/A   Overcast
9:53 PM 30.9 °F - 23.0 °F 72% 29.94 in 10.0 mi Calm Calm - N/A   Overcast
10:53 PM 30.0 °F 25.2 °F 21.9 °F 72% 29.93 in 10.0 mi SE 4.6 mph - N/A   Overcast
11:53 PM 33.1 °F 28.7 °F 24.1 °F 70% 29.92 in 10.0 mi SE 4.6 mph - N/A   Overcast